Regional Weather Roundup
Issued by NWS

Home | Current Version | Previous Version | Text Only | Print | Product List | Glossary Off
Versions: 1 2 3 4 5 6 7 8 9 10 11 12 13 14 15 16 17 18 19 20 21 22 23 24 25 26 27 28 29 30 31 32 33 34 35 36 37 38 39 40 41 42 43 44 45 46 47 48 49 50

000
ASUS43 KLMK 252102
RWRKY
KENTUCKY REGIONAL WEATHER ROUNDUP
NATIONAL WEATHER SERVICE LOUISVILLE KY
500 PM EDT SUN JUN 25 2017

NOTE "FAIR" INDICATES FEW OR NO CLOUDS BELOW 12,000 FEET
WITH NO SIGNIFICANT WEATHER AND/OR OBSTRUCTIONS TO VISIBILITY.

KYZ001>023-026-027-061>063-070>075-252200-
WESTERN AND SOUTH CENTRAL KENTUCKY

CITY           SKY/WX    TMP DP  RH WIND       PRES   REMARKS
PADUCAH        MOSUNNY   84  53  34 NW10      30.17F
HENDERSON      SUNNY     83  48  29 W15G22    30.15F
OWENSBORO      MOSUNNY   83  51  33 NW14      30.15F
HOPKINSVILLE   SUNNY     81  48  31 NW14      30.18F
BOWLING GREEN  SUNNY     81  51  35 VRB5      30.17F
GLASGOW        NOT AVBL
$$

KYZ024-025-028>034-038-045-046-053-252200-
NORTH CENTRAL KENTUCKY

CITY           SKY/WX    TMP DP  RH WIND       PRES   REMARKS
LOUISVILLE/SDF PTSUNNY   83  47  28 W22G31    30.13F
LOUISVILLE/LOU MOSUNNY   80  49  33 W13G22    30.12F
FORT KNOX      MOSUNNY   80  52  37 SW13G18   30.13F
$$

KYZ035>037-039>044-047>052-055>060-089>105-252200-
NORTHEAST KENTUCKY

CITY           SKY/WX    TMP DP  RH WIND       PRES   REMARKS
LEXINGTON      MOSUNNY   79  47  32 W15       30.14F
COVINGTON      MOSUNNY   78  48  34 W18       30.10F
FRANKFORT      PTSUNNY   80  47  31 W13G20    30.12F
$$

KYZ054-064>069-076>088-106>120-252200-
SOUTHEAST KENTUCKY

CITY           SKY/WX    TMP DP  RH WIND       PRES   REMARKS
JACKSON        MOSUNNY   76  49  38 CALM      30.17F
LONDON         SUNNY     78  44  29 NW10      30.17F
SOMERSET       MOSUNNY   77  45  31 W10       30.18F
MIDDLESBORO    SUNNY     79  48  33 N7G17     30.17F
MONTICELLO     CLEAR     79  50  36 W8        30.20F
$$




USA.gov is the U.S. government's official web portal to all federal, state and local government web resources and services.